Regional Weather Roundup
Issued by NWS Charleston, WV

Home | Current Version | Previous Version | Text Only | Print | Product List | Glossary Off
Versions: 1 2 3 4 5 6 7 8 9 10 11 12 13 14 15 16 17 18 19 20 21 22 23 24 25 26 27 28

000
ASUS41 KRLX 290610
RWRRLX
West Virginia Regional Weather Roundup
National Weather Service Charleston WV
200 AM EDT FRI JUL 29 2016

Note: "fair" indicates few or no clouds below 12,000 feet with no
significant weather and/or obstructions to visibility.

WVZ003-290700-
Northern Panhandle of West Virginia

CITY           SKY/WX    TMP DP  RH WIND       PRES   REMARKS
WHEELING       FOG       68  66  93 CALM      29.93S VSB 1/4
$$

WVZ009-290700-
Northwest West Virginia

CITY           SKY/WX    TMP DP  RH WIND       PRES   REMARKS
PARKERSBURG    CLOUDY    70  69  97 CALM      29.95R FOG
$$

WVZ006-290700-
Western West Virginia

CITY           SKY/WX    TMP DP  RH WIND       PRES   REMARKS
HUNTINGTON     FOG       71  70  96 SW5       29.93S VSB 1
$$

WVZ015-290700-
West Central West Virginia

CITY           SKY/WX    TMP DP  RH WIND       PRES   REMARKS
CHARLESTON     CLOUDY    71  69  93 CALM      29.94S FOG
$$

WVZ022-031-290700-
North Central West Virginia

CITY           SKY/WX    TMP DP  RH WIND       PRES   REMARKS
CLARKSBURG     CLOUDY    69  68  96 CALM      29.93R FOG
MORGANTOWN     CLOUDY    69  67  93 CALM      29.94S
$$

WVZ025-035-042-045-290700-
Southern West Virginia

CITY           SKY/WX    TMP DP  RH WIND       PRES   REMARKS
BECKLEY        LGT RAIN  67  65  93 W5        29.99F
LOGAN          CLOUDY    70  70 100 CALM      29.96S
BLUEFIELD      CLOUDY    65  63  93 NW8       30.03R
LEWISBURG      CLOUDY    68  66  93 W3        29.98S
$$

WVZ047-290700-
Northern Mountains of West Virginia

CITY           SKY/WX    TMP DP  RH WIND       PRES   REMARKS
ELKINS         CLOUDY    68  65  90 CALM      29.96S
$$

WVZ052-290700-
Eastern Panhandle of West Virginia

CITY           SKY/WX    TMP DP  RH WIND       PRES   REMARKS
MARTINSBURG    RAIN      69  68  96 N8        29.86F FOG
PETERSBURG     CLOUDY    70  69  98 CALM      29.91F
$$




USA.gov is the U.S. government's official web portal to all federal, state and local government web resources and services.